GW4115 Weather Reports


time (UTC)temp
F
wind
direction
speed
knots
gust
knots
rain 1hr
in
rain 24hr
in
rain mn
in
humidity
%
barometer
mb
20260505124522 57 30 2.6 7.8 0.00 0.12 0.12 84 1007.1
20260505123015 58 46 2.6 6.1 0.00 0.12 0.12 86 1006.9
20260505121515 58 76 2.6 7.0 0.00 0.12 0.12 85 1006.5
20260505120012 59 342 2.6 6.1 0.00 0.12 0.12 86 1006.6
20260505114521 59 346 1.7 5.2 0.00 0.12 0.12 86 1006.8
20260505113023 60 42 3.5 7.8 0.00 0.12 0.12 88 1005.9
20260505111524 60 30 2.6 5.2 0.01 0.12 0.12 88 1006.0
20260505101522 59 265 0.0 0.0 0.00 0.11 0.11 89 1005.3
20260505100029 59 340 0.0 0.0 0.01 0.11 0.11 87 1005.2
20260505094527 59 148 0.0 0.0 0.04 0.11 0.11 86 1004.9
20260505093029 59 123 0.0 3.5 0.08 0.11 0.11 87 1004.3
20260505091518 59 178 1.7 3.5 0.09 0.11 0.11 89 1004.4
20260505090024 60 121 0.0 1.7 0.09 0.10 0.10 88 1005.6
20260505084526 60 254 0.0 5.2 0.07 0.07 0.07 87 1006.6
20260505083033 61 266 1.7 2.6 0.03 0.03 0.03 87 1006.5
20260505081530 61 247 2.6 6.1 0.02 0.02 0.02 85 1006.1
20260505080023 62 223 1.7 4.3 0.01 0.01 0.01 80 1005.8
20260505074522 63 293 0.0 3.5 0.00 0.00 0.00 75 1005.6
20260505073036 63 275 0.0 0.0 0.00 0.00 0.00 76 1005.6
20260505071529 63 209 0.0 0.0 0.00 0.00 0.00 76 1005.6
20260505070028 63 78 0.0 0.0 0.00 0.00 0.00 75 1005.4
20260505064510 63 123 0.0 0.0 0.00 0.00 0.00 75 1005.9
20260505063009 62 222 0.0 0.0 0.00 0.00 0.00 76 1006.2
20260505061507 62 145 0.0 0.0 0.00 0.00 0.00 76 1006.3
20260505060016 62 202 0.0 0.0 0.00 0.00 0.00 76 1006.1
20260505054506 62 188 0.0 0.0 0.00 0.00 0.00 75 1006.2
20260505053008 62 121 0.0 0.0 0.00 0.00 0.00 75 1006.2
20260505051514 63 130 0.0 0.0 0.00 0.00 0.00 75 1006.2
20260505041511 63 123 0.0 0.0 0.00 0.00 0.00 73 1006.9
20260505040016 64 273 0.0 0.0 0.00 0.00 0.00 72 1007.2
20260505034503 64 273 0.0 0.0 0.00 0.00 0.00 70 1007.4
20260505033010 65 273 0.0 0.0 0.00 0.00 0.00 70 1007.3
20260505031511 65 273 0.0 0.0 0.00 0.00 0.00 71 1007.5
20260505030008 65 273 0.0 0.0 0.00 0.00 0.00 70 1007.2
20260505024506 65 273 0.0 0.0 0.00 0.00 0.00 70 1007.2
20260505023003 66 273 0.0 0.0 0.00 0.00 0.00 68 1006.8
20260505021503 66 224 0.0 0.0 0.00 0.00 0.00 68 1006.7
20260505020012 67 224 0.0 0.0 0.00 0.00 0.00 66 1006.5
20260505014517 68 254 0.0 0.0 0.00 0.00 0.00 65 1006.2
20260505013014 68 169 0.0 0.0 0.00 0.00 0.00 65 1005.9
20260505011504 69 360 0.0 0.0 0.00 0.00 0.00 62 1005.8
20260505010026 69 309 0.0 0.0 0.00 0.00 0.00 61 1005.7
20260505004528 70 24 0.0 0.0 0.00 0.00 0.00 60 1005.7
20260505003020 72 223 0.0 0.0 0.00 0.00 0.00 59 1005.6
20260505001522 73 142 0.0 0.0 0.00 0.00 0.00 55 1005.5
20260505000014 74 280 0.0 1.7 0.00 0.00 0.00 52 1005.5
20260504234520 76 9 1.7 3.5 0.00 0.00 0.00 50 1005.4
20260504233012 76 176 0.0 2.6 0.00 0.00 0.00 49 1005.3
20260504231523 77 248 0.0 3.5 0.00 0.00 0.00 48 1005.6
20260504230024 78 273 0.0 3.5 0.00 0.00 0.00 49 1005.6
20260504224507 79 9 0.9 3.5 0.00 0.00 0.00 49 1005.7
20260504223023 80 50 0.9 4.3 0.00 0.00 0.00 49 1005.6
20260504221520 81 242 0.9 5.2 0.00 0.00 0.00 50 1005.7
20260504220014 80 304 0.9 4.3 0.00 0.00 0.00 52 1005.7
20260504214517 80 278 0.9 2.6 0.00 0.00 0.00 50 1005.9
20260504213015 80 277 0.9 2.6 0.00 0.00 0.00 51 1006.0
20260504211520 80 252 1.7 5.2 0.00 0.00 0.00 45 1006.0
20260504210022 80 245 3.5 11.3 0.00 0.00 0.00 47 1006.1
20260504204551 81 272 1.7 6.1 0.00 0.00 0.00 51 1006.4
20260504203031 81 283 1.7 7.0 0.00 0.00 0.00 51 1006.6
20260504201514 81 177 1.7 3.5 0.00 0.00 0.00 49 1006.8
20260504200028 82 271 1.7 6.1 0.00 0.00 0.00 52 1006.7
20260504194525 81 261 0.9 5.2 0.00 0.00 0.00 48 1007.2
20260504193026 80 319 1.7 11.3 0.00 0.00 0.00 51 1007.1
20260504191524 80 236 1.7 7.8 0.00 0.00 0.00 51 1007.3
20260504190016 81 248 2.6 6.1 0.00 0.00 0.00 51 1007.2
20260504184521 80 273 2.6 7.8 0.00 0.00 0.00 49 1007.2
20260504183016 80 124 1.7 5.2 0.00 0.00 0.00 49 1007.4
20260504181513 79 269 1.7 7.0 0.00 0.00 0.00 50 1007.3
20260504180013 79 115 0.9 5.2 0.00 0.00 0.00 52 1007.5
20260504174523 79 360 1.7 6.1 0.00 0.00 0.00 51 1007.8
20260504173025 79 297 1.7 3.5 0.00 0.00 0.00 52 1007.7
20260504171537 79 20 1.7 6.1 0.00 0.00 0.00 53 1007.7